EXS1325 EICK-LEIB

Flight info

Callsign EXS1325
Flight time 2h 24m
Altitude 33000
Route ELTIG1S ELTIG DCT IBISU DCT ABRIX DCT RUBEO DCT VARUT
Aircraft A321/M-SDE3FGHIRWY/LB1

Departure

Time 2026-04-30 18:45
Airport Cork International Airport (EICK)

Arrival

Time 2026-04-30 21:09
Airport Ibiza Airport (LEIB)
Time Latitude Longitude Altitude Speed Heading
2026-04-30 18:07 51.84893 -8.49082 503 ft 0 kts 69°
2026-04-30 18:37 51.84886 -8.49111 503 ft 3 kts 69°
2026-04-30 18:37 51.84878 -8.49147 503 ft 3 kts 69°
2026-04-30 18:38 51.84871 -8.49177 503 ft 3 kts 65°
2026-04-30 18:38 51.84859 -8.49207 503 ft 3 kts 34°
2026-04-30 18:38 51.84838 -8.49220 502 ft 3 kts 359°
2026-04-30 18:38 51.84817 -8.49216 502 ft 3 kts 349°
2026-04-30 18:39 51.84804 -8.49212 503 ft 0 kts 349°
2026-04-30 18:41 51.84807 -8.49213 502 ft 2 kts 349°
2026-04-30 18:41 51.84832 -8.49220 502 ft 5 kts 349°
2026-04-30 18:41 51.84876 -8.49241 503 ft 8 kts 340°
2026-04-30 18:41 51.84939 -8.49272 503 ft 11 kts 346°
2026-04-30 18:42 51.85021 -8.49312 503 ft 12 kts 340°
2026-04-30 18:42 51.85142 -8.49433 501 ft 10 kts 275°
2026-04-30 18:42 51.85082 -8.49524 487 ft 15 kts 206°
2026-04-30 18:45 51.78468 -8.43536 2779 ft 194 kts 95°
2026-04-30 18:45 51.78389 -8.41256 2903 ft 213 kts 96°
2026-04-30 18:45 51.78286 -8.38732 3020 ft 238 kts 96°
2026-04-30 18:46 51.78163 -8.35966 3495 ft 251 kts 96°
2026-04-30 18:46 51.78030 -8.33119 4162 ft 256 kts 96°
2026-04-30 18:46 51.77890 -8.30226 4878 ft 260 kts 97°
2026-04-30 18:46 51.77747 -8.27337 5574 ft 263 kts 97°
2026-04-30 18:47 51.77594 -8.24383 6304 ft 265 kts 99°
2026-04-30 18:47 51.77437 -8.21402 6992 ft 268 kts 99°
2026-04-30 18:47 51.77278 -8.18395 7682 ft 270 kts 99°
2026-04-30 18:47 51.77117 -8.15372 8379 ft 271 kts 100°
2026-04-30 18:48 51.76952 -8.12320 9087 ft 273 kts 100°
2026-04-30 18:48 51.76786 -8.09261 9775 ft 275 kts 101°
2026-04-30 18:48 51.76618 -8.06169 10333 ft 282 kts 101°
2026-04-30 18:48 51.76432 -8.02901 10462 ft 303 kts 100°
2026-04-30 18:49 51.76232 -7.99404 10590 ft 323 kts 100°
2026-04-30 18:49 51.76022 -7.95687 10716 ft 342 kts 100°
2026-04-30 18:49 51.75789 -7.91808 11067 ft 350 kts 103°
2026-04-30 18:49 51.75156 -7.88041 11603 ft 347 kts 116°
2026-04-30 18:50 51.73992 -7.84651 12176 ft 345 kts 129°
2026-04-30 18:50 51.72368 -7.81820 12752 ft 344 kts 142°
2026-04-30 18:50 51.70374 -7.79695 13337 ft 345 kts 154°
2026-04-30 18:50 51.68196 -7.78047 13916 ft 347 kts 156°
2026-04-30 18:51 51.66004 -7.76394 14441 ft 349 kts 155°
2026-04-30 18:51 51.63805 -7.74730 14960 ft 351 kts 155°
2026-04-30 18:51 51.61616 -7.73071 15451 ft 353 kts 155°
2026-04-30 18:51 51.59362 -7.71366 15953 ft 355 kts 155°
2026-04-30 18:52 51.57117 -7.69665 16462 ft 357 kts 155°
2026-04-30 18:52 51.54898 -7.67986 16935 ft 359 kts 155°
2026-04-30 18:52 51.52627 -7.66265 17421 ft 361 kts 155°
2026-04-30 18:52 51.50345 -7.64540 17906 ft 363 kts 155°
2026-04-30 18:53 51.48049 -7.62814 18393 ft 366 kts 156°
2026-04-30 18:53 51.45732 -7.61081 18800 ft 368 kts 156°
2026-04-30 18:53 51.43411 -7.59343 19202 ft 370 kts 156°
2026-04-30 18:53 51.41075 -7.57590 19610 ft 372 kts 156°
2026-04-30 18:54 51.38726 -7.55829 20009 ft 374 kts 156°
2026-04-30 18:54 51.36365 -7.54062 20407 ft 376 kts 156°
2026-04-30 18:54 51.33992 -7.52285 20801 ft 378 kts 156°
2026-04-30 18:54 51.31606 -7.50499 21197 ft 380 kts 156°
2026-04-30 18:55 51.29205 -7.48705 21577 ft 382 kts 156°
2026-04-30 18:55 51.24386 -7.45120 22340 ft 386 kts 156°
2026-04-30 18:55 51.21943 -7.43305 22717 ft 388 kts 156°
2026-04-30 18:56 51.17011 -7.39651 23459 ft 392 kts 157°
2026-04-30 18:56 51.14528 -7.37814 23786 ft 395 kts 157°
2026-04-30 18:56 51.12032 -7.35967 24088 ft 396 kts 157°
2026-04-30 18:57 51.06994 -7.32246 24643 ft 401 kts 157°
2026-04-30 18:57 51.04455 -7.30374 24933 ft 403 kts 157°
2026-04-30 18:57 51.01937 -7.28518 25211 ft 405 kts 157°
2026-04-30 18:58 50.96801 -7.24735 25753 ft 409 kts 157°
2026-04-30 18:58 50.94221 -7.22843 26035 ft 410 kts 157°
2026-04-30 18:58 50.91624 -7.20942 26309 ft 412 kts 157°
2026-04-30 18:59 50.86384 -7.17117 26839 ft 415 kts 157°
2026-04-30 19:00 50.78492 -7.11365 27638 ft 420 kts 157°
2026-04-30 19:00 50.75834 -7.09430 28005 ft 419 kts 157°
2026-04-30 19:00 50.70556 -7.05585 28724 ft 417 kts 157°
2026-04-30 19:01 50.65283 -7.01764 29411 ft 416 kts 158°
2026-04-30 19:01 50.62652 -6.99866 29690 ft 416 kts 158°
2026-04-30 19:02 50.57362 -6.96058 30119 ft 420 kts 158°
2026-04-30 19:02 50.52043 -6.92239 30654 ft 420 kts 158°
2026-04-30 19:03 50.46733 -6.88434 31214 ft 419 kts 158°
2026-04-30 19:03 50.41472 -6.84664 31756 ft 419 kts 158°
2026-04-30 19:04 50.36175 -6.80880 32298 ft 418 kts 158°
2026-04-30 19:04 50.30879 -6.77109 32863 ft 417 kts 158°
2026-04-30 19:05 50.25599 -6.73356 33046 ft 415 kts 158°
2026-04-30 19:06 50.16107 -6.66622 33053 ft 414 kts 158°
2026-04-30 19:06 50.08223 -6.61068 33052 ft 414 kts 158°
2026-04-30 19:07 50.00340 -6.55530 33037 ft 414 kts 158°
2026-04-30 19:08 49.89804 -6.48168 33037 ft 416 kts 159°
2026-04-30 19:09 49.81861 -6.42616 33036 ft 417 kts 159°
2026-04-30 19:09 49.76605 -6.38964 33035 ft 418 kts 159°
2026-04-30 19:10 49.65973 -6.31611 33043 ft 419 kts 159°
2026-04-30 19:11 49.57975 -6.26102 33034 ft 421 kts 158°
2026-04-30 19:12 49.52613 -6.22415 33037 ft 422 kts 159°
2026-04-30 19:12 49.47227 -6.18717 33051 ft 424 kts 159°
2026-04-30 19:13 49.36465 -6.11352 33055 ft 425 kts 159°
2026-04-30 19:14 49.31044 -6.07662 33053 ft 426 kts 159°
2026-04-30 19:14 49.25606 -6.03977 33057 ft 427 kts 159°
2026-04-30 19:15 49.20163 -6.00295 33057 ft 428 kts 159°
2026-04-30 19:15 49.11989 -5.94769 33063 ft 429 kts 159°
2026-04-30 19:16 49.06528 -5.91099 33068 ft 429 kts 159°
2026-04-30 19:17 48.98327 -5.85591 33074 ft 430 kts 159°
2026-04-30 19:17 48.90152 -5.80123 33065 ft 430 kts 159°
2026-04-30 19:18 48.81914 -5.74635 33071 ft 431 kts 159°
2026-04-30 19:19 48.76412 -5.70982 33076 ft 432 kts 159°
2026-04-30 19:19 48.68150 -5.65510 33057 ft 432 kts 159°
2026-04-30 19:20 48.62632 -5.61854 33065 ft 434 kts 159°
2026-04-30 19:21 48.54319 -5.56378 33076 ft 435 kts 159°
2026-04-30 19:22 48.43195 -5.49077 33081 ft 437 kts 159°
2026-04-30 19:23 48.26435 -5.38158 33089 ft 438 kts 159°
2026-04-30 19:24 48.18037 -5.32723 33099 ft 438 kts 159°
2026-04-30 19:25 48.04052 -5.23694 33094 ft 439 kts 159°
2026-04-30 19:26 47.92798 -5.16458 33100 ft 440 kts 159°
2026-04-30 19:27 47.84344 -5.11057 33099 ft 441 kts 159°
2026-04-30 19:28 47.75873 -5.05667 33103 ft 442 kts 159°
2026-04-30 19:29 47.64566 -4.98503 33091 ft 445 kts 159°
2026-04-30 19:30 47.53148 -4.91296 33101 ft 447 kts 159°
2026-04-30 19:31 47.41693 -4.84104 33107 ft 448 kts 159°
2026-04-30 19:31 47.33071 -4.78717 33114 ft 449 kts 159°
2026-04-30 19:32 47.27363 -4.75145 33110 ft 449 kts 159°
2026-04-30 19:32 47.21608 -4.71560 33111 ft 449 kts 159°
2026-04-30 19:33 47.15846 -4.67978 33112 ft 450 kts 159°
2026-04-30 19:33 47.10081 -4.64396 33121 ft 450 kts 158°
2026-04-30 19:34 47.04561 -4.59991 33116 ft 452 kts 153°
2026-04-30 19:35 46.96344 -4.53160 33125 ft 453 kts 153°
2026-04-30 19:35 46.90851 -4.48618 33125 ft 453 kts 153°
2026-04-30 19:36 46.85354 -4.44095 33122 ft 454 kts 153°
2026-04-30 19:36 46.77095 -4.37295 33122 ft 454 kts 153°
2026-04-30 19:37 46.71441 -4.32644 33128 ft 454 kts 153°
2026-04-30 19:37 46.65971 -4.28150 33129 ft 454 kts 153°
2026-04-30 19:38 46.60461 -4.23638 33132 ft 454 kts 153°
2026-04-30 19:38 46.54945 -4.19148 33136 ft 454 kts 153°
2026-04-30 19:39 46.49427 -4.14667 33137 ft 454 kts 153°
2026-04-30 19:39 46.43909 -4.10189 33138 ft 454 kts 153°
2026-04-30 19:40 46.38390 -4.05713 33140 ft 455 kts 153°
2026-04-30 19:40 46.32863 -4.01238 33140 ft 455 kts 153°
2026-04-30 19:41 46.27326 -3.96792 33116 ft 456 kts 153°
2026-04-30 19:41 46.21769 -3.92333 33125 ft 458 kts 153°
2026-04-30 19:42 46.16199 -3.87856 33129 ft 459 kts 153°
2026-04-30 19:42 46.10620 -3.83385 33132 ft 459 kts 153°
2026-04-30 19:43 46.05028 -3.78925 33137 ft 459 kts 153°
2026-04-30 19:44 45.96634 -3.72240 33139 ft 460 kts 153°
2026-04-30 19:44 45.91974 -3.68552 33142 ft 460 kts 153°
2026-04-30 19:45 45.85452 -3.63398 33140 ft 460 kts 153°
2026-04-30 19:45 45.79845 -3.58959 33144 ft 460 kts 153°
2026-04-30 19:46 45.75150 -3.55242 33145 ft 461 kts 153°
2026-04-30 19:46 45.69527 -3.50814 33134 ft 461 kts 153°
2026-04-30 19:47 45.63891 -3.46399 33133 ft 463 kts 153°
2026-04-30 19:47 45.58279 -3.42009 33137 ft 463 kts 153°
2026-04-30 19:48 45.52620 -3.37592 33146 ft 464 kts 153°
2026-04-30 19:48 45.46959 -3.33177 33152 ft 464 kts 153°
2026-04-30 19:49 45.41298 -3.28763 33149 ft 464 kts 153°
2026-04-30 19:49 45.32798 -3.22171 33141 ft 464 kts 154°
2026-04-30 19:50 45.27124 -3.17792 33145 ft 464 kts 154°
2026-04-30 19:50 45.21451 -3.13413 33149 ft 464 kts 154°
2026-04-30 19:51 45.15773 -3.09041 33158 ft 464 kts 154°
2026-04-30 19:51 45.10086 -3.04685 33152 ft 465 kts 154°
2026-04-30 19:52 45.04385 -3.00317 33147 ft 467 kts 154°
2026-04-30 19:52 44.98675 -2.95951 33147 ft 467 kts 154°
2026-04-30 19:53 44.92946 -2.91578 33148 ft 467 kts 154°
2026-04-30 19:53 44.87258 -2.87242 33150 ft 468 kts 154°
2026-04-30 19:54 44.81526 -2.82889 33152 ft 467 kts 154°
2026-04-30 19:54 44.75801 -2.78567 33157 ft 467 kts 154°
2026-04-30 19:55 44.70063 -2.74246 33158 ft 467 kts 154°
2026-04-30 19:55 44.64338 -2.69917 33156 ft 467 kts 154°
2026-04-30 19:56 44.58620 -2.65603 33154 ft 467 kts 154°
2026-04-30 19:56 44.52882 -2.61298 33142 ft 468 kts 154°
2026-04-30 19:57 44.47133 -2.56999 33145 ft 469 kts 154°
2026-04-30 19:57 44.41377 -2.52700 33148 ft 469 kts 154°
2026-04-30 19:58 44.35618 -2.48403 33150 ft 469 kts 155°
2026-04-30 19:58 44.29859 -2.44118 33163 ft 469 kts 155°
2026-04-30 19:59 44.24098 -2.39844 33167 ft 468 kts 155°
2026-04-30 20:00 44.15465 -2.33459 33163 ft 468 kts 155°
2026-04-30 20:00 44.09724 -2.29209 33170 ft 467 kts 155°
2026-04-30 20:01 44.01098 -2.22856 33155 ft 468 kts 155°
2026-04-30 20:01 43.95378 -2.18657 33160 ft 468 kts 155°
2026-04-30 20:02 43.86744 -2.12340 33163 ft 467 kts 155°
2026-04-30 20:03 43.78108 -2.06055 33169 ft 467 kts 155°
2026-04-30 20:03 43.72362 -2.01859 33172 ft 467 kts 155°
2026-04-30 20:04 43.66618 -1.97688 33168 ft 466 kts 155°
2026-04-30 20:05 43.57644 -1.92805 33176 ft 461 kts 164°
2026-04-30 20:05 43.48600 -1.88319 33151 ft 460 kts 163°
2026-04-30 20:06 43.42568 -1.85334 33161 ft 461 kts 164°
2026-04-30 20:06 43.36531 -1.82367 33170 ft 460 kts 163°
2026-04-30 20:07 43.30515 -1.79414 33171 ft 459 kts 164°
2026-04-30 20:08 43.21507 -1.75008 33155 ft 457 kts 164°
2026-04-30 20:08 43.15552 -1.72105 33162 ft 457 kts 164°
2026-04-30 20:09 43.09564 -1.69189 33162 ft 456 kts 164°
2026-04-30 20:09 43.00585 -1.64826 33145 ft 456 kts 163°
2026-04-30 20:10 42.91628 -1.60488 33160 ft 454 kts 163°
2026-04-30 20:11 42.82716 -1.56192 33148 ft 452 kts 163°
2026-04-30 20:11 42.76780 -1.53324 33142 ft 452 kts 163°
2026-04-30 20:12 42.67882 -1.49037 33121 ft 453 kts 164°
2026-04-30 20:13 42.61928 -1.46192 33117 ft 454 kts 164°
2026-04-30 20:13 42.56011 -1.43370 33113 ft 453 kts 164°
2026-04-30 20:14 42.50067 -1.40527 33109 ft 453 kts 163°
2026-04-30 20:14 42.44128 -1.37688 33109 ft 452 kts 164°
2026-04-30 20:15 42.38192 -1.34865 33112 ft 452 kts 163°
2026-04-30 20:15 42.32260 -1.32058 33113 ft 451 kts 163°
2026-04-30 20:16 42.26333 -1.29243 33112 ft 451 kts 163°
2026-04-30 20:16 42.20423 -1.26453 33109 ft 450 kts 163°
2026-04-30 20:17 42.14510 -1.23663 33103 ft 449 kts 163°
2026-04-30 20:17 42.08618 -1.20896 33105 ft 448 kts 163°
2026-04-30 20:18 42.02739 -1.18137 33107 ft 447 kts 163°
2026-04-30 20:18 41.96873 -1.15390 33090 ft 446 kts 163°
2026-04-30 20:19 41.91006 -1.12636 33077 ft 446 kts 163°
2026-04-30 20:19 41.85151 -1.09896 33077 ft 446 kts 163°
2026-04-30 20:20 41.79785 -1.07391 33073 ft 446 kts 163°
2026-04-30 20:20 41.73916 -1.04661 33072 ft 446 kts 164°
2026-04-30 20:21 41.68057 -1.01948 33078 ft 446 kts 164°
2026-04-30 20:21 41.62195 -0.99238 33081 ft 445 kts 164°
2026-04-30 20:22 41.56341 -0.96531 33083 ft 445 kts 164°
2026-04-30 20:22 41.50494 -0.93830 33081 ft 444 kts 164°
2026-04-30 20:23 41.44653 -0.91131 33083 ft 444 kts 164°
2026-04-30 20:23 41.38809 -0.88442 33083 ft 444 kts 164°
2026-04-30 20:24 41.32967 -0.85764 33091 ft 444 kts 164°
2026-04-30 20:24 41.27135 -0.83090 33097 ft 443 kts 164°
2026-04-30 20:25 41.18394 -0.79099 33096 ft 442 kts 164°
2026-04-30 20:26 41.09701 -0.75135 33077 ft 442 kts 164°
2026-04-30 20:26 41.00973 -0.71163 33085 ft 442 kts 164°
2026-04-30 20:27 40.89727 -0.64507 33090 ft 446 kts 154°
2026-04-30 20:28 40.78871 -0.56621 33104 ft 445 kts 155°
2026-04-30 20:30 40.65305 -0.46830 33116 ft 444 kts 155°
2026-04-30 20:31 40.49935 -0.35789 33116 ft 444 kts 155°
2026-04-30 20:32 40.36354 -0.26080 32250 ft 446 kts 155°
2026-04-30 20:33 40.33660 -0.24153 31549 ft 447 kts 155°
2026-04-30 20:33 40.28291 -0.20323 31033 ft 427 kts 155°
2026-04-30 20:33 40.25716 -0.18490 30843 ft 415 kts 155°
2026-04-30 20:34 40.20702 -0.14927 30023 ft 407 kts 155°
2026-04-30 20:34 40.15767 -0.11429 28991 ft 400 kts 155°
2026-04-30 20:35 40.13328 -0.09703 28497 ft 397 kts 155°
2026-04-30 20:35 40.10909 -0.07993 28011 ft 394 kts 155°
2026-04-30 20:35 40.06131 -0.04620 27070 ft 388 kts 155°
2026-04-30 20:36 40.03767 -0.02953 26609 ft 385 kts 155°
2026-04-30 20:36 40.01419 -0.01295 26144 ft 382 kts 155°
2026-04-30 20:36 39.96770 0.01981 25199 ft 378 kts 155°
2026-04-30 20:37 39.94467 0.03604 24760 ft 376 kts 155°
2026-04-30 20:37 39.92176 0.05218 24330 ft 373 kts 155°
2026-04-30 20:37 39.89904 0.06816 23918 ft 371 kts 155°
2026-04-30 20:37 39.87670 0.08382 23469 ft 369 kts 155°
2026-04-30 20:38 39.85434 0.09944 22997 ft 366 kts 155°
2026-04-30 20:38 39.83224 0.11486 22532 ft 363 kts 155°
2026-04-30 20:38 39.81038 0.13014 22081 ft 361 kts 155°
2026-04-30 20:39 39.76645 0.16090 21190 ft 356 kts 155°
2026-04-30 20:39 39.74469 0.17611 20761 ft 354 kts 155°
2026-04-30 20:39 39.72329 0.19104 20340 ft 352 kts 154°
2026-04-30 20:40 39.68045 0.22099 19504 ft 347 kts 154°
2026-04-30 20:40 39.65895 0.23603 19090 ft 345 kts 154°
2026-04-30 20:40 39.63813 0.25059 18696 ft 343 kts 154°
2026-04-30 20:41 39.59624 0.27970 17841 ft 340 kts 154°
2026-04-30 20:41 39.57545 0.29414 17387 ft 338 kts 154°
2026-04-30 20:41 39.55479 0.30849 16987 ft 336 kts 154°
2026-04-30 20:41 39.53423 0.32276 16573 ft 334 kts 154°
2026-04-30 20:42 39.51386 0.33686 16170 ft 332 kts 154°
2026-04-30 20:42 39.49351 0.35095 15773 ft 330 kts 154°
2026-04-30 20:42 39.45320 0.37881 14998 ft 327 kts 154°
2026-04-30 20:43 39.43317 0.39265 14621 ft 325 kts 155°
2026-04-30 20:43 39.41326 0.40641 14254 ft 324 kts 155°
2026-04-30 20:43 39.39345 0.42008 13876 ft 322 kts 155°
2026-04-30 20:44 39.35408 0.44722 13056 ft 319 kts 154°
2026-04-30 20:44 39.33452 0.46073 12617 ft 318 kts 154°
2026-04-30 20:44 39.29593 0.48737 11854 ft 315 kts 154°
2026-04-30 20:45 39.25739 0.51388 11094 ft 312 kts 154°
2026-04-30 20:45 39.23826 0.52702 10711 ft 311 kts 154°
2026-04-30 20:45 39.21922 0.54013 10341 ft 309 kts 153°
2026-04-30 20:46 39.16345 0.57850 10110 ft 299 kts 153°
2026-04-30 20:46 39.14513 0.59102 10111 ft 298 kts 153°
2026-04-30 20:47 39.10843 0.61609 10102 ft 297 kts 154°
2026-04-30 20:47 39.09022 0.62856 10107 ft 296 kts 154°
2026-04-30 20:48 39.05517 0.65642 10103 ft 297 kts 140°
2026-04-30 20:48 39.04098 0.67554 9767 ft 296 kts 128°
2026-04-30 20:48 39.03017 0.69769 9370 ft 296 kts 116°
2026-04-30 20:48 39.02280 0.72228 8975 ft 294 kts 105°
2026-04-30 20:49 39.01920 0.74807 8607 ft 292 kts 94°
2026-04-30 20:49 39.01816 0.77410 8225 ft 291 kts 92°
2026-04-30 20:49 39.01704 0.80011 7842 ft 290 kts 92°
2026-04-30 20:50 39.01464 0.85148 7152 ft 286 kts 92°
2026-04-30 20:50 39.01342 0.87692 6804 ft 283 kts 91°
2026-04-30 20:50 39.01222 0.90207 6509 ft 279 kts 91°
2026-04-30 20:50 39.01107 0.92704 6389 ft 280 kts 91°
2026-04-30 20:51 39.00995 0.95206 6258 ft 280 kts 91°
2026-04-30 20:51 39.00775 1.00159 6006 ft 278 kts 91°
2026-04-30 20:51 39.00660 1.02637 5879 ft 277 kts 91°
2026-04-30 20:52 39.00546 1.05105 5760 ft 276 kts 91°
2026-04-30 20:52 39.00429 1.07566 5622 ft 275 kts 91°
2026-04-30 20:52 39.00191 1.12463 5373 ft 274 kts 92°
2026-04-30 20:53 39.00073 1.14900 5248 ft 273 kts 91°
2026-04-30 20:53 39.00015 1.17331 5134 ft 270 kts 85°
2026-04-30 20:53 39.00231 1.19712 5002 ft 268 kts 77°
2026-04-30 20:54 39.01042 1.24373 4758 ft 266 kts 76°
2026-04-30 20:54 39.01440 1.26695 4623 ft 266 kts 76°
2026-04-30 20:54 39.01833 1.29014 4502 ft 265 kts 76°
2026-04-30 20:55 39.02611 1.33631 4252 ft 264 kts 76°
2026-04-30 20:55 39.02995 1.35926 4126 ft 262 kts 76°
2026-04-30 20:55 39.03370 1.38170 3997 ft 251 kts 77°
2026-04-30 20:56 39.04066 1.42323 4007 ft 232 kts 76°
2026-04-30 20:56 39.04404 1.44342 4014 ft 230 kts 76°
2026-04-30 20:56 39.05032 1.48379 3838 ft 230 kts 78°
2026-04-30 20:57 39.05315 1.50399 3715 ft 229 kts 79°
2026-04-30 20:57 39.05593 1.52413 3594 ft 229 kts 79°
2026-04-30 20:57 39.05871 1.54419 3478 ft 227 kts 79°
2026-04-30 20:58 39.06430 1.58396 3414 ft 226 kts 79°
2026-04-30 20:58 39.06714 1.60394 3437 ft 226 kts 79°
2026-04-30 20:58 39.07113 1.62345 3440 ft 226 kts 69°
2026-04-30 20:58 39.07800 1.64166 3444 ft 226 kts 62°
2026-04-30 20:59 39.09272 1.67736 3444 ft 226 kts 62°
2026-04-30 20:59 39.10005 1.69522 3447 ft 225 kts 62°
2026-04-30 21:00 39.11463 1.73080 3237 ft 218 kts 62°
2026-04-30 21:00 39.11925 1.76700 2979 ft 208 kts 107°
2026-04-30 21:01 39.10044 1.79401 3054 ft 212 kts 150°
2026-04-30 21:01 39.08696 1.80183 3043 ft 213 kts 162°
2026-04-30 21:01 39.05756 1.79918 3046 ft 220 kts 203°
2026-04-30 21:02 39.04507 1.78786 3045 ft 222 kts 226°
2026-04-30 21:02 39.03645 1.77136 3062 ft 223 kts 242°
2026-04-30 21:02 39.02927 1.75369 3044 ft 223 kts 242°
2026-04-30 21:02 39.02205 1.73594 3044 ft 224 kts 242°
2026-04-30 21:03 39.01481 1.71822 3045 ft 224 kts 242°
2026-04-30 21:03 39.00768 1.70080 3043 ft 224 kts 242°
2026-04-30 21:03 39.00043 1.68310 3043 ft 223 kts 242°
2026-04-30 21:03 38.99321 1.66548 3050 ft 223 kts 242°
2026-04-30 21:04 38.98596 1.64777 3038 ft 223 kts 242°
2026-04-30 21:04 38.97872 1.63012 3036 ft 223 kts 242°
2026-04-30 21:04 38.96422 1.59480 3051 ft 223 kts 242°
2026-04-30 21:05 38.95696 1.57714 2942 ft 223 kts 241°
2026-04-30 21:05 38.94977 1.55965 2858 ft 216 kts 241°
2026-04-30 21:05 38.94296 1.54307 2656 ft 203 kts 241°
2026-04-30 21:05 38.93658 1.52758 2398 ft 190 kts 241°
2026-04-30 21:06 38.93061 1.51307 2162 ft 178 kts 242°
2026-04-30 21:06 38.92501 1.49949 1946 ft 167 kts 242°
2026-04-30 21:06 38.91968 1.48657 1715 ft 162 kts 242°
2026-04-30 21:06 38.91453 1.47407 1530 ft 160 kts 242°
2026-04-30 21:07 38.90928 1.46135 1322 ft 158 kts 242°
2026-04-30 21:07 38.90421 1.44906 1107 ft 158 kts 242°
2026-04-30 21:07 38.89906 1.43659 912 ft 158 kts 242°
2026-04-30 21:07 38.89394 1.42419 698 ft 157 kts 242°
2026-04-30 21:08 38.88885 1.41185 489 ft 156 kts 241°
2026-04-30 21:08 38.88374 1.39956 295 ft 156 kts 241°
2026-04-30 21:08 38.87865 1.38731 101 ft 156 kts 242°
2026-04-30 21:08 38.87373 1.37531 10 ft 137 kts 242°
2026-04-30 21:09 38.87027 1.36688 8 ft 81 kts 242°
2026-04-30 21:09 38.86891 1.36319 5 ft 25 kts 275°
2026-04-30 21:09 38.86964 1.36228 7 ft 10 kts 335°
2026-04-30 21:09 38.87021 1.36230 8 ft 8 kts 39°
2026-04-30 21:10 38.87048 1.36285 8 ft 7 kts 62°
2026-04-30 21:10 38.87069 1.36336 8 ft 6 kts 63°
2026-04-30 21:10 38.87093 1.36396 9 ft 11 kts 62°
2026-04-30 21:10 38.87127 1.36478 8 ft 10 kts 60°
2026-04-30 21:11 38.87160 1.36555 8 ft 10 kts 62°
2026-04-30 21:11 38.87193 1.36634 9 ft 11 kts 62°
2026-04-30 21:11 38.87233 1.36735 9 ft 14 kts 63°
2026-04-30 21:11 38.87274 1.36837 9 ft 8 kts 59°
2026-04-30 21:12 38.87325 1.36849 9 ft 9 kts 344°
2026-04-30 21:12 38.87353 1.36802 8 ft 5 kts 335°
2026-04-30 21:12 38.87357 1.36840 9 ft 7 kts 148°
2026-04-30 21:12 38.87303 1.36913 9 ft 12 kts 85°
2026-04-30 21:13 38.87333 1.36968 9 ft 5 kts 53°
2026-04-30 21:13 38.87344 1.36991 9 ft 1 kts 59°
2026-04-30 21:13 38.87353 1.37000 10 ft 3 kts 40°
2026-04-30 21:13 38.87362 1.37011 9 ft 2 kts 49°
2026-04-30 21:14 38.87377 1.37060 9 ft 7 kts 71°
2026-04-30 21:14 38.87400 1.37137 9 ft 11 kts 65°
2026-04-30 21:14 38.87438 1.37235 9 ft 12 kts 62°
2026-04-30 21:14 38.87478 1.37331 9 ft 12 kts 62°
2026-04-30 21:15 38.87507 1.37403 9 ft 6 kts 62°
2026-04-30 21:15 38.87529 1.37446 9 ft 5 kts 32°
2026-04-30 21:15 38.87561 1.37437 9 ft 7 kts 335°
2026-04-30 21:15 38.87609 1.37404 8 ft 6 kts 332°
2026-04-30 21:16 38.87619 1.37397 8 ft 1 kts 332°
2026-04-30 21:16 38.87620 1.37396 8 ft 0 kts 332°